Home > Weather > Cape Coral > Past weeks

Flag for USA Past Weather in Cape Coral, Florida, USA — Yesterday and Last 2 Weeks

Now
89 °F

Thunderstorms. Mostly cloudy.


Feels Like: 94 °F
Forecast: 72 / 88 °F
Wind: 8 mph from Northwest

Location: Page Field

Current Time: May 30, 2016 at 4:24:22 PM

Latest Report: May 30, 2016 at 3:53 PM


Visibility: 10 mi

Pressure: 29.92 "Hg

Humidity: 53%

Dew Point: 70 °F

Location of Cape CoralLocation

Past Weather in Cape Coral — Graph

°F

Cape Coral Temperature Yesterday

Maximum temperature yesterday: 90 °F (at 12:53 PM)
Minimum temperature yesterday: 72 °F (at 6:53 AM)
Average temperature yesterday: 80 °F

High & Low Weather Summary for the Past Weeks

 TemperatureHumidityPressure
High92 °F (May 16, 2:53 PM)97% (May 18, 7:53 AM)30.17 "Hg (May 18, 7:53 AM)
Low66 °F (May 26, 5:53 AM)34% (May 15, 3:53 PM)29.89 "Hg (May 22, 4:53 PM)
Average80 °F69%30.02 "Hg
* Reported May 15 3:53 PM — May 30 3:02 PM, Cape Coral, Weather by CustomWeather, © 2016

Note: Actual official high and low records may vary slightly from our data, if they occured in-between our weather recording intervals... More about our weather records

Advertising

Cape Coral Weather History for the Previous 24 Hours

Scroll right to see more
 ConditionsComfort  
Time TempWeatherWind HumidityBarometerVisibility
3:02 PM
Mon, May 30
92 °FThunderstorms. Broken clouds.8 mph46%29.94 "Hg10 mi
2:53 PM90 °FPartly sunny.9 mph48%29.94 "Hg10 mi
1:53 PM91 °FPassing clouds.No wind38%29.97 "Hg10 mi
12:53 PM88 °FScattered clouds.No wind46%29.99 "Hg10 mi
11:53 AM87 °FPassing clouds.6 mph51%30.01 "Hg10 mi
10:53 AM85 °FPassing clouds.5 mph57%30.02 "Hg10 mi
9:53 AM82 °FSunny.No wind65%30.03 "Hg10 mi
8:53 AM79 °FSunny.No wind69%30.02 "Hg10 mi
7:53 AM73 °FSunny.3 mph88%30.01 "Hg10 mi
6:53 AM71 °FClear.3 mph93%30.00 "Hg10 mi
5:53 AM72 °FClear.5 mph91%29.98 "Hg10 mi
4:53 AM72 °FClear.No wind91%29.98 "Hg10 mi
3:53 AM73 °FClear.No wind88%29.98 "Hg10 mi
2:53 AM72 °FClear.3 mph87%29.98 "Hg10 mi
1:53 AM73 °FClear.5 mph84%30.01 "Hg10 mi
12:53 AM73 °FClear.3 mph84%30.03 "Hg10 mi
11:53 PM
Sun, May 29
74 °FPassing clouds.3 mph82%30.04 "Hg10 mi
10:53 PM74 °FPassing clouds.7 mph82%30.05 "Hg10 mi
9:53 PM73 °FPassing clouds.6 mph84%30.05 "Hg10 mi
8:53 PM74 °FPassing clouds.8 mph82%30.05 "Hg10 mi
7:53 PM78 °FThunderstorms. Broken clouds.20 mph71%30.05 "Hg10 mi
6:53 PM87 °FPassing clouds.14 mph53%30.00 "Hg10 mi
5:53 PM90 °FSunny.9 mph35%29.98 "Hg10 mi
4:53 PM90 °FSunny.13 mph41%29.99 "Hg10 mi
Weather by CustomWeather, © 2016

See weather overviewHow to use our weather pages